Regional Weather Roundup
Issued by NWS

Home | Current Version | Previous Version | Graphics & Text | Print | Product List | Glossary On
Versions: 1 2 3 4 5 6 7 8 9 10 11 12 13 14 15 16 17 18 19 20 21 22 23 24 25 26 27 28
000
ASUS45 KTFX 250910
RWRMT
MONTANA REGIONAL WEATHER ROUNDUP
NATIONAL WEATHER SERVICE GREAT FALLS MT
300 AM MDT MON JUL 25 2016

NOTE: "FAIR" INDICATES FEW OR NO CLOUDS BELOW 12000 FEET WITH NO
SIGNIFICANT WEATHER AND/OR OBSTRUCTIONS TO VISIBILITY.

MTZ001>007-043-251000-
WEST OF THE DIVIDE

CITY           SKY/WX    TMP DP  RH WIND       PRES   REMARKS
KALISPELL      CLEAR     52  50  93 N8        30.04S
MISSOULA       CLEAR     60  46  59 CALM      30.07F
BUTTE          CLEAR     53  36  52 CALM      30.20R
MULLAN PASS    CLEAR     61  41  47 CALM      30.21S
ANACONDA         N/A     55  37  50 S3        30.16
DEER LODGE       N/A     52  41  66 CALM      30.18R
EUREKA           N/A     55  48  76 CALM        N/A
HAMILTON         N/A     57  45  62 CALM      30.09S
LIBBY            N/A     54  46  76 SE3       30.06R
PLAINS           N/A     57  46  66 CALM      30.05S
RONAN            N/A     53  47  80 CALM      30.09F
$$

MTZ008-052>055-251000-
SOUTHWEST MONTANA

CITY           SKY/WX    TMP DP  RH WIND       PRES   REMARKS
BOZEMAN        CLEAR     53  44  71 SE9       30.11R
DILLON         CLEAR     59  35  40 S7        30.14R
W YELLOWSTONE  CLOUDY    36  27  69 S3        30.28S
ENNIS          CLEAR     55  30  38 CALM      30.20S
THREE FORKS      N/A     50  30  46 CALM      30.08S
TWIN BRIDGES     N/A     56  31  38 NE5       30.11R
$$

MTZ009-010-012-014-046-048-049-054-251000-
EAST SLOPES AND CENTRAL MONTANA

CITY           SKY/WX    TMP DP  RH WIND       PRES   REMARKS
CUT BANK       CLEAR     57  46  66 NW6       30.05S
GREAT FALLS    CLEAR     57  42  57 SW10      30.05S
MALMSTROM AFB  CLEAR     59  44  57 SW8       30.05R
HELENA         CLEAR     65  40  39 CALM      30.09R
CHOTEAU          N/A     57  43  58 CALM      30.08S
CONRAD           N/A     53  48  83 W2        30.06S
$$

MTZ011-013-016-021-045-047-050-051-251000-
NORTH CENTRAL MONTANA

CITY           SKY/WX    TMP DP  RH WIND       PRES   REMARKS
HAVRE            N/A     54  47  77 MISG      29.97S
LEWISTOWN      CLEAR     58  43  57 SE5       30.07F
N BAR RANCH      N/A     52  41  66 W5        30.11F
CHINOOK          N/A     59  48  67 CALM      29.97S
$$

MTZ017>020-022>027-061-062-251000-
NORTHEAST MONTANA

CITY           SKY/WX    TMP DP  RH WIND       PRES   REMARKS
GLASGOW        CLEAR     61  52  72 E10       29.97S
JORDAN           N/A     54  45  71 NW5       29.99S
SIDNEY         CLEAR     59  54  83 N5        29.97S
WOLF POINT     CLEAR     59  54  83 NE5       29.97S
PLENTYWOOD       N/A     63  55  77 NE6       29.99F
POPLAR           N/A     61  57  88 CALM      29.97F
SCOBEY           N/A     58  48  69 CALM      29.99F
$$

MTZ028>42-056>058-251000-
SOUTHCENTRAL AND SOUTHEAST MONTANA

CITY           SKY/WX    TMP DP  RH WIND       PRES   REMARKS
BAKER          CLEAR     63  49  60 SE12      30.02S
BILLINGS       CLEAR     66  39  37 NW10      30.02S
LIVINGSTON     CLEAR     55  37  50 NW6       30.11S
MILES CITY     CLEAR     67  46  47 CALM      29.95F
EKALAKA          N/A     73  46  38 SW3       30.02S
FORSYTH          N/A     66  46  48 CALM      29.95F
LAUREL           N/A     66  37  34 W7        30.01F
ROUNDUP          N/A     64  42  44 CALM      29.95S
$$

REGIONAL REPORTS...DAKOTAS

CITY           SKY/WX    TMP DP  RH WIND       PRES   REMARKS
WILLISTON      CLEAR     62  56  80 N6        29.98F
MINOT          CLEAR     63  59  87 CALM      30.01F
DICKINSON      CLEAR     57  51  80 SE9       30.00F
BEACH            N/A     57  50  77 S7        30.03F
CROSBY           N/A     57  57 100 SE5       30.02F
WATFORD CITY     N/A    N/A N/A N/A MISG        N/A
BISMARCK       CLEAR     61  59  93 NE6       30.03S
GRAND FORKS    CLEAR     61  57  87 W5        29.98R
FARGO          CLEAR     62  57  83 SW3       30.00S
BUFFALO SD       N/A     66  50  56 S8        29.98S
RAPID CITY     CLEAR     70  54  56 S10       30.09F
$$

REGIONAL REPORTS...WYOMING/IDAHO/WASHINGTON

CITY           SKY/WX    TMP DP  RH WIND       PRES   REMARKS
GILLETTE       CLEAR     67  52  58 S15       30.10S
SHERIDAN       CLEAR     56  45  66 CALM      30.05F
BUFFALO WY     CLEAR     63  40  42 CALM      30.13S
CODY           CLEAR     64  34  32 SW7       30.13S
YELLOWSTONE LA   N/A     40  32  73 NW3       30.36F
IDAHO FALLS    CLOUDY    48  41  76 N7        30.12R
SALMON         CLEAR     57  41  54 CALM      30.07S
BOISE          CLEAR     69  34  27 SE8       29.97R
SPOKANE        CLEAR     66  44  45 CALM      30.01S
$$

REGIONAL REPORTS...ALBERTA

CITY           SKY/WX    TMP DP  RH WIND       PRES   REMARKS
EDMONTON       PTCLDY    59  54  82 W6        30.01R
CALGARY        PTCLDY    61  54  77 N16G23    30.08R
LETHBRIDGE     CLEAR     55  50  82 SW9       29.99S
MEDICINE HAT   CLEAR     59  54  82 SE2       29.94S
WATERTON GATE    N/A     55  46  71 S9          N/A
CARDSTON         N/A     61  46  59 SW7         N/A
MILK RIVER       N/A     55  48  76 W9          N/A
$$

REGIONAL REPORTS...SASKATCHEWAN

CITY           SKY/WX    TMP DP  RH WIND       PRES   REMARKS
SWIFT CURRENT  CLEAR     59  57  94 S9        29.96S
REGINA         CLEAR     57  54  88 SE6       29.99S
SASKATOON      MOCLDY    59  57  94 W6        29.97R
CYPRESS HILLS    N/A     61  41  48 SW3         N/A
VAL MARIE        N/A     50  46  87 NE3         N/A
ROCKGLEN         N/A     57  54  88 S9          N/A
$$




USA.gov is the U.S. government's official web portal to all federal, state and local government web resources and services.